Date String (YYYY-MM-DD hh:mm:ss) UTC,Instrument flags,absolute air pressure of the measurement (hPa),sample flow rate (lpm),inlet stack bypass flow (lpm),air temperature of the measurement (°C),ambient temperature measured by the external sensor (°C),aerosol sample conditioner tube jacket temperature (°C),OPC LED temperature (°C),internal box temperature (°C),relative humidity of the measurement (%),span deviation,mass concentration of particles derived from Lorenz-Mie calculation of OPC scattering (μg/m³),mass concentration of particles derived from Lorenz-Mie calculation of OPC scattering (μg/m³),mass concentration of particles derived from Lorenz-Mie calculation of OPC scattering (μg/m³)
DateTimeUTC,F1_M11,P_M11,Q1_M11,Q2_M11,T1_M11,T2_M11,T3_M11,T4_M11,T5_M11,U1_M11,ZSPAN_M11,X0_M11,X2_M11,X1_M11
2024-03-24 14:00:00,SystemResetWarning,0809.6,5.00,000.00,020.8,019.8,000.0,029.5,022.5,24.5,0001.4,0050.66,0019.22,0016.67
2024-03-24 14:01:00,SystemResetWarning,0809.7,5.01,000.00,020.7,019.8,000.0,029.5,022.5,24.5,0001.5,0051.17,0019.37,0016.72
2024-03-24 14:02:00,SystemResetWarning,0809.6,5.00,000.00,020.7,019.8,000.0,029.5,022.5,24.5,0001.5,0051.70,0019.39,0016.75
2024-03-24 14:03:00,SystemResetWarning,0809.6,5.00,000.00,020.7,019.8,000.0,029.4,022.5,24.5,0001.7,0052.59,0019.50,0016.81
2024-03-24 14:04:00,SystemResetWarning,0809.5,5.00,000.00,020.7,019.8,000.0,029.4,022.5,24.5,0001.6,0051.96,0019.68,0016.87
2024-03-24 14:05:00,SystemResetWarning,0809.5,4.99,000.00,020.7,019.7,000.0,029.4,022.5,24.4,0001.5,0050.29,0019.79,0016.96
2024-03-24 14:06:00,SystemResetWarning,0809.5,5.00,000.00,020.7,019.7,000.0,029.4,022.5,24.3,0001.5,0046.74,0019.88,0017.06
2024-03-24 14:07:00,SystemResetWarning,0809.5,4.99,000.00,020.7,019.7,000.0,029.4,022.5,24.4,0001.3,0045.32,0019.97,0017.11
2024-03-24 14:08:00,SystemResetWarning,0809.6,5.00,000.00,020.7,019.7,000.0,029.4,022.5,24.5,0001.5,0044.30,0019.98,0017.11
2024-03-24 14:09:00,SystemResetWarning,0809.6,5.00,000.00,020.7,019.7,000.0,029.4,022.5,24.7,0001.3,0043.02,0019.99,0017.11
2024-03-24 14:10:00,SystemResetWarning,0809.6,5.01,000.00,020.6,019.7,000.0,029.4,022.5,24.8,0001.3,0042.76,0019.96,0017.08
2024-03-24 14:11:00,SystemResetWarning,0809.6,4.99,000.00,020.6,019.8,000.0,029.4,022.5,24.7,0001.5,0042.01,0019.89,0017.02
2024-03-24 14:12:00,SystemResetWarning,0809.5,4.99,000.00,020.6,019.8,000.0,029.3,022.4,24.7,0001.6,0041.55,0019.78,0016.92
2024-03-24 14:13:00,SystemResetWarning,0809.6,5.00,000.00,020.6,019.8,000.0,029.3,022.4,24.6,0001.6,0041.50,0019.76,0016.87
2024-03-24 14:14:00,SystemResetWarning,0809.6,5.00,000.00,020.6,019.8,000.0,029.3,022.4,24.6,0001.2,0042.18,0019.77,0016.81
2024-03-24 14:15:00,SystemResetWarning,0809.6,5.00,000.00,020.6,019.8,000.0,029.3,022.4,24.5,0001.3,0042.91,0019.64,0016.77
2024-03-24 14:16:00,SystemResetWarning,0809.6,5.01,000.00,020.6,019.8,000.0,029.3,022.4,24.6,0001.4,0044.47,0019.45,0016.68
2024-03-24 14:17:00,SystemResetWarning,0809.6,5.01,000.00,020.6,019.8,000.0,029.3,022.4,24.6,0001.4,0044.45,0019.30,0016.59
2024-03-24 14:18:00,SystemResetWarning,0809.6,4.99,000.00,020.6,019.8,000.0,029.3,022.4,24.5,0001.7,0044.42,0019.17,0016.56
2024-03-24 14:19:00,SystemResetWarning,0809.5,5.00,000.00,020.6,019.8,000.0,029.3,022.4,24.7,0001.6,0045.83,0019.19,0016.57
2024-03-24 14:20:00,SystemResetWarning,0809.6,4.99,000.00,020.6,019.8,000.0,029.3,022.4,24.6,0001.6,0047.79,0019.25,0016.57
2024-03-24 14:21:00,SystemResetWarning,0809.6,5.00,000.00,020.6,019.8,000.0,029.3,022.4,24.6,0001.5,0049.49,0019.30,0016.57
2024-03-24 14:22:00,SystemResetWarning,0809.6,5.00,000.00,020.6,019.8,000.0,029.3,022.4,24.6,0001.6,0050.29,0019.29,0016.55
2024-03-24 14:23:00,SystemResetWarning,0809.6,5.01,000.00,020.6,019.8,000.0,029.3,022.4,24.5,0001.7,0049.99,0019.23,0016.57
2024-03-24 14:24:00,SystemResetWarning,0809.5,5.01,000.00,020.6,019.7,000.0,029.3,022.4,24.5,0001.7,0049.89,0019.19,0016.56
2024-03-24 14:25:00,SystemResetWarning,0809.5,5.00,000.00,020.6,019.7,000.0,029.2,022.4,24.6,0002.0,0048.80,0019.13,0016.55
2024-03-24 14:26:00,SystemResetWarning,0809.5,5.00,000.00,020.6,019.7,000.0,029.2,022.4,24.7,0001.9,0048.19,0019.10,0016.54
2024-03-24 14:27:00,SystemResetWarning,0809.5,4.99,000.00,020.6,019.7,000.0,029.2,022.4,24.8,0001.9,0046.68,0019.10,0016.54
2024-03-24 14:28:00,SystemResetWarning,0809.6,4.99,000.00,020.6,019.8,000.0,029.2,022.4,24.7,0002.0,0046.93,0019.14,0016.55
2024-03-24 14:29:00,SystemResetWarning,0809.6,5.00,000.00,020.6,019.8,000.0,029.2,022.4,24.7,0001.8,0045.86,0019.19,0016.52
2024-03-24 14:30:00,SystemResetWarning,0809.6,5.00,000.00,020.6,019.8,000.0,029.2,022.4,24.8,0001.7,0044.72,0019.13,0016.49
2024-03-24 14:31:00,SystemResetWarning,0809.5,5.00,000.00,020.6,019.8,000.0,029.2,022.4,24.9,0001.9,0042.20,0019.03,0016.47
2024-03-24 14:32:00,SystemResetWarning,0809.5,5.00,000.00,020.6,019.8,000.0,029.2,022.4,24.9,0001.7,0040.91,0018.91,0016.42
2024-03-24 14:33:00,SystemResetWarning,0809.5,5.00,000.00,020.6,019.9,000.0,029.2,022.4,24.9,0001.6,0039.56,0018.87,0016.40
2024-03-24 14:34:00,SystemResetWarning,0809.5,5.00,000.00,020.6,019.9,000.0,029.2,022.4,25.1,0001.5,0040.49,0018.87,0016.41
2024-03-24 14:35:00,SystemResetWarning,0809.5,4.99,000.00,020.6,019.9,000.0,029.2,022.4,25.1,0001.6,0042.40,0018.91,0016.44
2024-03-24 14:36:00,SystemResetWarning,0809.6,5.00,000.00,020.6,019.9,000.0,029.2,022.4,25.0,0001.4,0042.37,0018.84,0016.45
2024-03-24 14:37:00,SystemResetWarning,0809.6,5.00,000.00,020.6,019.9,000.0,029.2,022.5,25.2,0001.5,0042.78,0018.85,0016.46
2024-03-24 14:38:00,SystemResetWarning,0809.6,5.00,000.00,020.6,020.0,000.0,029.2,022.5,25.3,0001.3,0042.65,0018.85,0016.47
2024-03-24 14:39:00,SystemResetWarning,0809.6,5.00,000.00,020.6,019.9,000.0,029.2,022.5,25.2,0001.5,0043.78,0018.84,0016.47
2024-03-24 14:40:00,SystemResetWarning,0809.5,5.01,000.00,020.6,019.9,000.0,029.2,022.5,25.0,0001.7,0043.93,0018.84,0016.47
2024-03-24 14:41:00,SystemResetWarning,0809.5,5.00,000.00,020.6,019.9,000.0,029.2,022.4,25.1,0001.8,0043.36,0018.85,0016.49
2024-03-24 14:42:00,SystemResetWarning,0809.5,4.99,000.00,020.6,019.9,000.0,029.2,022.4,25.2,0001.8,0044.92,0018.94,0016.51
2024-03-24 14:43:00,SystemResetWarning,0809.4,4.99,000.00,020.6,019.9,000.0,029.2,022.4,25.2,0002.0,0046.15,0019.05,0016.55
2024-03-24 14:44:00,SystemResetWarning,0809.4,5.00,000.00,020.6,019.9,000.0,029.2,022.4,25.3,0002.2,0048.70,0019.07,0016.57
2024-03-24 14:45:00,SystemResetWarning,0809.3,5.02,000.00,020.6,019.9,000.0,029.2,022.4,25.4,0002.1,0047.73,0019.15,0016.60
2024-03-24 14:46:00,SystemResetWarning,0809.3,5.00,000.00,020.6,019.9,000.0,029.2,022.4,25.6,0002.1,0044.78,0019.23,0016.64
2024-03-24 14:47:00,SystemResetWarning,0809.3,5.00,000.00,020.6,019.9,000.0,029.2,022.4,25.8,0001.9,0045.54,0019.25,0016.63
2024-03-24 14:48:00,SystemResetWarning,0809.2,5.00,000.00,020.6,019.9,000.0,029.2,022.5,25.7,0001.8,0044.82,0019.24,0016.60
2024-03-24 14:49:00,SystemResetWarning,0809.2,5.00,000.00,020.6,019.9,000.0,029.2,022.5,25.6,0001.8,0045.65,0019.24,0016.56
2024-03-24 14:50:00,SystemResetWarning,0809.2,4.99,000.00,020.6,020.0,000.0,029.2,022.5,25.7,0001.7,0043.67,0019.18,0016.53
2024-03-24 14:51:00,SystemResetWarning,0809.3,4.99,000.00,020.6,020.0,000.0,029.2,022.5,25.6,0001.5,0043.63,0019.11,0016.52
2024-03-24 14:52:00,SystemResetWarning,0809.3,4.99,000.00,020.6,020.0,000.0,029.2,022.5,25.9,0001.3,0044.05,0019.04,0016.48
2024-03-24 14:53:00,SystemResetWarning,0809.3,5.00,000.00,020.6,020.0,000.0,029.2,022.5,25.9,0000.9,0044.24,0018.96,0016.41
2024-03-24 14:54:00,SystemResetWarning,0809.3,5.02,000.00,020.6,020.0,000.0,029.2,022.5,26.0,0001.0,0043.71,0018.88,0016.38
2024-03-24 14:55:00,SystemResetWarning,0809.3,5.00,000.00,020.6,020.0,000.0,029.2,022.5,25.9,0001.1,0040.55,0018.83,0016.34
2024-03-24 14:56:00,SystemResetWarning,0809.3,4.98,000.00,020.7,020.1,000.0,029.2,022.5,26.0,0001.1,0040.56,0018.85,0016.30
2024-03-24 14:57:00,SystemResetWarning,0809.3,5.00,000.00,020.7,020.1,000.0,029.2,022.5,26.1,0001.0,0040.96,0018.84,0016.25
2024-03-24 14:58:00,SystemResetWarning,0809.2,5.02,000.00,020.7,020.1,000.0,029.2,022.5,26.1,0001.2,0040.97,0018.83,0016.25
2024-03-24 14:59:00,SystemResetWarning,0809.2,5.00,000.00,020.7,020.1,000.0,029.2,022.6,25.8,0001.6,0040.27,0018.88,0016.26
